Regional Weather Roundup
Issued by NWS

Home | Current Version | Previous Version | Text Only | Print | Product List | Glossary Off
Versions: 1 2 3 4 5 6 7 8 9 10 11 12 13 14 15 16 17 18 19 20 21 22 23 24 25 26 27 28 29 30 31 32 33 34 35 36 37 38 39 40 41 42 43 44 45 46 47 48 49 50

000
ASUS43 KMPX 281910
RWRMN
WEATHER ROUNDUP FOR MINNESOTA
NATIONAL WEATHER SERVICE TWIN CITIES/CHANHASSEN MN
200 PM CDT MON JUL 28 2014


NOTE: "FAIR" INDICATES FEW OR NO CLOUDS BELOW 12,000 FEET WITH NO
SIGNIFICANT WEATHER AND/OR OBSTRUCTIONS TO VISIBILITY. N/A MEANS
CURRENT SKY AND/OR WEATHER CONDITIONS ARE NOT AVAILABLE.

MNZ060>063-068>070-282000-
   Twin Cities Metro

CITY           SKY/WX    TMP DP  RH WIND       PRES   REMARKS
TWIN CITIES    PTSUNNY   76  48  37 N8G18     30.18F
ST PAUL        MOSUNNY   75  50  41 N12       30.18F
CRYSTAL        PTSUNNY   76  50  40 N8        30.17F
BLAINE         PTSUNNY   73  52  46 N6        30.18F
LAKEVILLE      PTSUNNY   72  52  49 NW5       30.19S
EDEN PRAIRIE   CLOUDY    74  53  48 NW8       30.18S
SOUTH ST PAUL  MOSUNNY   73  46  37 N8        30.18S
LAKE ELMO      FAIR      73  52  46 N8        30.19F
$$
MNZ001>005-007-008-013>017-022>024-027-028-282000-
   Northwest Minnesota

CITY           SKY/WX    TMP DP  RH WIND       PRES   REMARKS
BEMIDJI        MOSUNNY   72  51  47 NW14G21   30.22F
HALLOCK        SUNNY     72  54  53 N8        30.23F
ROSEAU         MOSUNNY   72  57  60 N7        30.22F
WARROAD        MOSUNNY   72  57  60 NW6       30.22S
THIEF RVR FALL PTSUNNY   70  52  52 NW12      30.24F
CROOKSTON      PTSUNNY   70  55  60 NW9       30.25S
FOSSTON        SUNNY     72  54  53 N9        30.24F
DETROIT LAKES  SUNNY     70  50  49 NW10      30.26F
MOORHEAD       PTSUNNY   70  54  56 N9        30.26S
PARK RAPIDS    PTSUNNY   71  51  49 N13       30.22F
$$
MNZ006-009>011-018-025>026-282000-
   North Central Minnesota

CITY           SKY/WX    TMP DP  RH WIND       PRES   REMARKS
BAUDETTE       SUNNY     73  54  51 NW13      30.21F
FLAG ISLAND    SUNNY     72  52  49 NW10      30.19S
INTL FALLS     MOSUNNY   73  54  51 NW13      30.17S
WASKISH        MOSUNNY   73  55  53 CALM      30.20F
BIG FORK       SUNNY     73  54  49 NW5       30.19F
LONGVILLE      MOSUNNY   72  55  56 N8        30.20F
GRAND RAPIDS   MOSUNNY   72  52  49 NW10      30.19F
CRANE LAKE     MOSUNNY   70  54  56 NW8       30.17S
ORR            MOSUNNY   73  52  46 NW8       30.14F
COOK           MOSUNNY   72  54  53 NW7       30.17F
$$
MNZ012-019>021-037-282000-
   Northeast Minnesota

CITY           SKY/WX    TMP DP  RH WIND       PRES   REMARKS
DULUTH         MOSUNNY   73  52  47 NW12      30.16F
ELY            PTSUNNY   72  54  53 NW8G16    30.14S
HIBBING        MOSUNNY   74  53  48 N12       30.17F
EVELETH        PTSUNNY   72  52  49 NW9       30.17F
DULUTH HARBOR  MOSUNNY   75  52  43 NW9       30.15S
TWO HARBORS    MOSUNNY   72  52  49 CALM      30.11F
SILVER BAY     SUNNY     72  55  56 NW10      30.10F
GRAND MARAIS     N/A     72  54  53 VRB3      30.06F
G MARAIS ARPRT MOSUNNY   66  50  55 NW9G21    30.11F
$$
MNZ029>031-032-039>041-046>048-054>057-064-282000-
   West Central Minnesota

CITY           SKY/WX    TMP DP  RH WIND       PRES   REMARKS
FERGUS FALLS   PTSUNNY   72  48  43 N10       30.24F
WHEATON        CLOUDY    66  50  55 NW8       30.27S
MORRIS         MOSUNNY   72  55  56 NW12G17   30.24F
ALEXANDRIA     PTSUNNY   71  50  47 NW9       30.25S
ELBOW LAKE     FAIR      70  54  56 NW10G16   30.24F
WADENA         MOSUNNY   72  54  53 NW12      30.22F
GLENWOOD       MOSUNNY   72  52  49 N8        30.24S
APPLETON       PTSUNNY   73  52  46 N13       30.24S
BENSON         PTSUNNY   72  55  56 N10       30.24S
ORTONVILLE     CLOUDY    70  48  46 N12       30.25S
MADISON        MOSUNNY   72  55  56 N7        30.24F
WILLMAR        FAIR      73  48  40 NW10      30.24S
$$
MNZ033>034-036-042>043-049>051-058-059-282000-
   Central Minnesota

CITY           SKY/WX    TMP DP  RH WIND       PRES   REMARKS
ST CLOUD       PTSUNNY   75  52  44 N9        30.19F
SAUK CENTRE    FAIR      72  50  45 NW13      30.22F
PAYNESVILLE    CLOUDY    69  48  46 W9G16     30.22S
AITKIN         PTSUNNY   73  55  53 N3        30.18F
PINE RIVER     PTSUNNY   72  54  53 N10       30.23F
BRAINERD       SUNNY     73  51  46 N12       30.20F
STAPLES        CLOUDY    70  52  52 NW12      30.22S
LONG PRAIRIE   CLOUDY    70  52  52 NW8       30.22F
LITTLE FALLS   MOSUNNY   72  48  43 NW6       30.20F
LITCHFIELD     PTSUNNY   73  52  46 NW3       30.21F
BUFFALO        PTSUNNY   73  50  43 N8        30.20F
MAPLE LAKE     PTSUNNY   73  53  50 N9        30.21S
$$
MNZ037-044-045-052-053-282000-
   East Central Minnesota

CITY           SKY/WX    TMP DP  RH WIND       PRES   REMARKS
PRINCETON      PTSUNNY   73  54  49 N12       30.19S
MORA           MOSUNNY   70  52  52 N9        30.20F
CAMBRIDGE      MOSUNNY   75  55  50 NW9       30.16F
RUSH CITY      CLOUDY    71  51  48 N6        30.18F
MOOSE LAKE     MOSUNNY   72  52  49 NW7       30.16F
HINCKLEY       MOCLDY    70  54  56 N9        30.18S
CLOQUET        MOSUNNY   72  48  43 NW14      30.17F
MCGREGOR       MOSUNNY   72  52  49 N9G16     30.19F
$$
MNZ071>073-080-081-089-090-097-098-282000-
   Southwest Minnesota

CITY           SKY/WX    TMP DP  RH WIND       PRES   REMARKS
MONTEVIDEO     MOSUNNY   73  54  49 NE10G18   30.24F
GRANITE FALLS  CLOUDY    71  54  55 N9        30.25S
CANBY          PTSUNNY   73  52  48 NE8       30.26S
MARSHALL       PTSUNNY   72  54  53 N8        30.23F
REDWOOD FALLS  CLOUDY    72  55  55 N7        30.22F
OLIVIA         CLOUDY    72  52  49 N9        30.22F
PIPESTONE      MOSUNNY   72  52  49 NE12      30.26S
WINDOM         PTSUNNY   72  55  56 N8        30.23F
WORTHINGTON    PTSUNNY   70  57  64 N8        30.25F
JACKSON        CLOUDY    70  54  56 CALM      30.24S
TRACY          SUNNY     73  55  54 N12       30.24F
SLAYTON        PTSUNNY   69  56  63 CALM      30.26S
$$
MNZ065>067-074>077-082>085-091>093-282000-
   South Central Minnesota

CITY           SKY/WX    TMP DP  RH WIND       PRES   REMARKS
MANKATO        CLOUDY    72  52  49 N7        30.20F
NEW ULM        MOSUNNY   72  54  53 N10       30.21F
ST JAMES       MOSUNNY   73  52  46 NW6       30.23S
FAIRMONT       CLOUDY    72  54  53 N7        30.22S
GLENCOE        SUNNY     73  48  42 N7        30.20S
FARIBAULT      PTSUNNY   73  48  40 N5        30.20S
OWATONNA       PTSUNNY   73  48  40 NW6       30.20S
WASECA         CLOUDY    72  52  49 NW9       30.22S
ALBERT LEA     PTSUNNY   73  54  49 N9        30.20S
$$
MNZ078>079-086>088-094>096-282000-
   Southeast Minnesota

CITY           SKY/WX    TMP DP  RH WIND       PRES   REMARKS
ROCHESTER      PTSUNNY   70  52  52 NW8       30.19F
RED WING       PTSUNNY   73  52  46 N5        30.16F
STANTON        CLOUDY    73  51  45 N6        30.18S
DODGE CENTER   MOSUNNY   72  54  53 N9        30.19S
WINONA         PTSUNNY   73  50  43 NW10G18   30.17S
AUSTIN         PTSUNNY   72  54  53 N12       30.19S
PRESTON        PTSUNNY   68  57  67 NW8       30.19S
$$
ABBREVIATIONS USED IN REMARKS
   TC - TEMPERATURES IN CELSIUS
  WCI - WIND CHILL INDEX
   HX - HEAT INDEX
  VSB - VISIBILITY
$$


USA.gov is the U.S. government's official web portal to all federal, state and local government web resources and services.